owner,sensor,date,latitude,longitude,vertical_datum,direction_of_sea_water_velocity,sea_water_speed,upward_sea_water_velocity,qcFlag 
TABS,ioos:station:wmo:42044:1,2003-06-01T00:00:00Z,26.1914,-97.0507,2.0,13.35798689,26.01376943,-99999.0,'11111222,11111222,99999999' 
TABS,ioos:station:wmo:42044:1,2003-06-01T00:30:00Z,26.1914,-97.0507,2.0,11.85381891,21.90715865,-99999.0,'11111222,11111222,99999999' 
TABS,ioos:station:wmo:42044:1,2003-06-01T01:00:00Z,26.1914,-97.0507,2.0,5.490829539,19.4391898,-99999.0,'11111222,11111222,99999999' 
TABS,ioos:station:wmo:42044:1,2003-06-01T01:30:00Z,26.1914,-97.0507,2.0,5.173000101,19.18814738,-99999.0,'11111222,11111222,99999999' 
TABS,ioos:station:wmo:42044:1,2003-06-01T02:00:00Z,26.1914,-97.0507,2.0,3.529392505,20.46881775,-99999.0,'11111222,11111222,99999999' 
TABS,ioos:station:wmo:42044:1,2003-06-01T02:30:00Z,26.1914,-97.0507,2.0,357.7317626,22.73781872,-99999.0,'11111222,11111222,99999999' 
TABS,ioos:station:wmo:42044:1,2003-06-01T03:00:00Z,26.1914,-97.0507,2.0,354.2524516,21.4679319,-99999.0,'11111222,11111222,99999999' 
TABS,ioos:station:wmo:42044:1,2003-06-01T03:30:00Z,26.1914,-97.0507,2.0,351.8737749,22.21305247,-99999.0,'11111222,11111222,99999999' 
TABS,ioos:station:wmo:42044:1,2003-06-01T04:00:00Z,26.1914,-97.0507,2.0,348.3900352,23.95003132,-99999.0,'11111222,11111222,99999999' 
TABS,ioos:station:wmo:42044:1,2003-06-01T04:30:00Z,26.1914,-97.0507,2.0,339.0150611,24.37684352,-99999.0,'11111222,11111222,99999999' 
TABS,ioos:station:wmo:42044:1,2003-06-01T05:00:00Z,26.1914,-97.0507,2.0,340.8119302,25.25297012,-99999.0,'11111222,11111222,99999999' 
TABS,ioos:station:wmo:42044:1,2003-06-01T05:30:00Z,26.1914,-97.0507,2.0,342.5198054,26.76606994,-99999.0,'11111222,11111222,99999999' 
TABS,ioos:station:wmo:42044:1,2003-06-01T06:00:00Z,26.1914,-97.0507,2.0,335.1836745,27.99518887,-99999.0,'11111222,11111222,99999999' 
TABS,ioos:station:wmo:42044:1,2003-06-01T06:30:00Z,26.1914,-97.0507,2.0,340.4405182,28.67473452,-99999.0,'11111222,11111222,99999999' 
TABS,ioos:station:wmo:42044:1,2003-06-01T07:00:00Z,26.1914,-97.0507,2.0,345.3056728,29.76351122,-99999.0,'11111222,11111222,99999999' 
TABS,ioos:station:wmo:42044:1,2003-06-01T07:30:00Z,26.1914,-97.0507,2.0,340.8568586,31.71374465,-99999.0,'11111222,11111222,99999999' 
TABS,ioos:station:wmo:42044:1,2003-06-01T08:00:00Z,26.1914,-97.0507,2.0,347.547212,31.16317217,-99999.0,'11111222,11111222,99999999' 
TABS,ioos:station:wmo:42044:1,2003-06-01T08:30:00Z,26.1914,-97.0507,2.0,347.1394475,33.69528899,-99999.0,'11111222,11111222,99999999' 
TABS,ioos:station:wmo:42044:1,2003-06-01T09:00:00Z,26.1914,-97.0507,2.0,348.2926471,35.03895261,-99999.0,'11111222,11111222,99999999' 
TABS,ioos:station:wmo:42044:1,2003-06-01T09:30:00Z,26.1914,-97.0507,2.0,352.0449261,35.69350221,-99999.0,'11111222,11111222,99999999' 
TABS,ioos:station:wmo:42044:1,2003-06-01T10:00:00Z,26.1914,-97.0507,2.0,349.0023932,35.64463634,-99999.0,'11111222,11111222,99999999' 
TABS,ioos:station:wmo:42044:1,2003-06-01T10:30:00Z,26.1914,-97.0507,2.0,355.0676774,38.03084275,-99999.0,'11111222,11111222,99999999' 
TABS,ioos:station:wmo:42044:1,2003-06-01T11:00:00Z,26.1914,-97.0507,2.0,349.2595271,37.50710066,-99999.0,'11111222,11111222,99999999' 
TABS,ioos:station:wmo:42044:1,2003-06-01T11:30:00Z,26.1914,-97.0507,2.0,355.7834872,37.67197632,-99999.0,'11111222,11111222,99999999' 
TABS,ioos:station:wmo:42044:1,2003-06-01T12:00:00Z,26.1914,-97.0507,2.0,352.0918568,39.10188359,-99999.0,'11111222,11111222,99999999' 
TABS,ioos:station:wmo:42044:1,2003-06-01T12:30:00Z,26.1914,-97.0507,2.0,353.0933724,39.41604369,-99999.0,'11111222,11111222,99999999' 
TABS,ioos:station:wmo:42044:1,2003-06-01T13:00:00Z,26.1914,-97.0507,2.0,352.1322673,41.41992033,-99999.0,'11111222,11111222,99999999' 
TABS,ioos:station:wmo:42044:1,2003-06-01T13:30:00Z,26.1914,-97.0507,2.0,357.1113096,36.70664926,-99999.0,'11111222,11111222,99999999' 
TABS,ioos:station:wmo:42044:1,2003-06-01T14:00:00Z,26.1914,-97.0507,2.0,352.7975613,36.60888553,-99999.0,'11111222,11111222,99999999' 
TABS,ioos:station:wmo:42044:1,2003-06-01T14:30:00Z,26.1914,-97.0507,2.0,351.0216884,35.24182317,-99999.0,'11111222,11111222,99999999' 
TABS,ioos:station:wmo:42044:1,2003-06-01T15:00:00Z,26.1914,-97.0507,2.0,354.2351796,30.36357357,-99999.0,'11111222,11111222,99999999' 
TABS,ioos:station:wmo:42044:1,2003-06-01T16:00:00Z,26.1914,-97.0507,2.0,4.526964124,32.94276248,-99999.0,'11111222,11111222,99999999' 
TABS,ioos:station:wmo:42044:1,2003-06-01T16:30:00Z,26.1914,-97.0507,2.0,359.1961794,30.64301715,-99999.0,'11111222,11144222,99999999' 
TABS,ioos:station:wmo:42044:1,2003-06-01T17:00:00Z,26.1914,-97.0507,2.0,359.4974666,30.77118457,-99999.0,'11111222,11144222,99999999' 
TABS,ioos:station:wmo:42044:1,2003-06-01T17:30:00Z,26.1914,-97.0507,2.0,359.3227597,29.60206918,-99999.0,'11111222,11144222,99999999' 
TABS,ioos:station:wmo:42044:1,2003-06-01T18:00:00Z,26.1914,-97.0507,2.0,3.414205856,29.72274886,-99999.0,'11111222,11111222,99999999' 
TABS,ioos:station:wmo:42044:1,2003-06-01T18:30:00Z,26.1914,-97.0507,2.0,359.5314711,31.78106354,-99999.0,'11111222,11144222,99999999' 
TABS,ioos:station:wmo:42044:1,2003-06-01T19:00:00Z,26.1914,-97.0507,2.0,2.799418889,32.14835921,-99999.0,'11111222,11111222,99999999' 
TABS,ioos:station:wmo:42044:1,2003-06-01T19:30:00Z,26.1914,-97.0507,2.0,2.101425438,36.27439042,-99999.0,'11111222,11111222,99999999' 
TABS,ioos:station:wmo:42044:1,2003-06-01T20:00:00Z,26.1914,-97.0507,2.0,2.478309878,32.61049678,-99999.0,'11111222,11111222,99999999' 
TABS,ioos:station:wmo:42044:1,2003-06-01T20:30:00Z,26.1914,-97.0507,2.0,359.9404497,38.35002086,-99999.0,'11111222,11144222,99999999' 
TABS,ioos:station:wmo:42044:1,2003-06-01T21:00:00Z,26.1914,-97.0507,2.0,0.786455565,38.62363655,-99999.0,'11111222,11111222,99999999' 
TABS,ioos:station:wmo:42044:1,2003-06-01T21:30:00Z,26.1914,-97.0507,2.0,2.741471986,38.26378575,-99999.0,'11111222,11111222,99999999' 
TABS,ioos:station:wmo:42044:1,2003-06-01T22:00:00Z,26.1914,-97.0507,2.0,3.505190074,40.07496101,-99999.0,'11111222,11111222,99999999' 
TABS,ioos:station:wmo:42044:1,2003-06-01T22:30:00Z,26.1914,-97.0507,2.0,5.780784662,43.98366174,-99999.0,'11111222,11111222,99999999' 
TABS,ioos:station:wmo:42044:1,2003-06-01T23:00:00Z,26.1914,-97.0507,2.0,6.994826311,43.60452385,-99999.0,'11111222,11111222,99999999' 
TABS,ioos:station:wmo:42044:1,2003-06-01T23:30:00Z,26.1914,-97.0507,2.0,7.633677191,38.01690282,-99999.0,'11111222,11111222,99999999' 
TABS,ioos:station:wmo:42044:1,2003-06-02T00:00:00Z,26.1914,-97.0507,2.0,7.824026036,35.18755036,-99999.0,'11111222,11111222,99999999' 
TABS,ioos:station:wmo:42044:1,2003-06-02T00:30:00Z,26.1914,-97.0507,2.0,10.40317773,36.55082078,-99999.0,'11111222,11111222,99999999' 
TABS,ioos:station:wmo:42044:1,2003-06-02T01:00:00Z,26.1914,-97.0507,2.0,6.843656048,33.06557878,-99999.0,'11111222,11111222,99999999' 
TABS,ioos:station:wmo:42044:1,2003-06-02T01:30:00Z,26.1914,-97.0507,2.0,15.26535477,29.96731887,-99999.0,'11111222,11111222,99999999' 
TABS,ioos:station:wmo:42044:1,2003-06-02T02:00:00Z,26.1914,-97.0507,2.0,13.33174829,29.18651915,-99999.0,'11111222,11111222,99999999' 
TABS,ioos:station:wmo:42044:1,2003-06-02T02:30:00Z,26.1914,-97.0507,2.0,6.927597149,28.77002781,-99999.0,'11111222,11111222,99999999' 
TABS,ioos:station:wmo:42044:1,2003-06-02T03:00:00Z,26.1914,-97.0507,2.0,5.873505152,28.73081969,-99999.0,'11111222,11111222,99999999' 
TABS,ioos:station:wmo:42044:1,2003-06-02T03:30:00Z,26.1914,-97.0507,2.0,2.673155449,28.09056247,-99999.0,'11111222,11111222,99999999' 
TABS,ioos:station:wmo:42044:1,2003-06-02T04:00:00Z,26.1914,-97.0507,2.0,3.679751093,28.0478181,-99999.0,'11111222,11111222,99999999' 
TABS,ioos:station:wmo:42044:1,2003-06-02T04:30:00Z,26.1914,-97.0507,2.0,358.2040715,28.71410803,-99999.0,'11111222,11111222,99999999' 
TABS,ioos:station:wmo:42044:1,2003-06-02T05:00:00Z,26.1914,-97.0507,2.0,359.0688105,30.14398282,-99999.0,'11111222,11144222,99999999' 
TABS,ioos:station:wmo:42044:1,2003-06-02T05:30:00Z,26.1914,-97.0507,2.0,359.1517338,29.71325798,-99999.0,'11111222,11144222,99999999' 
TABS,ioos:station:wmo:42044:1,2003-06-02T06:00:00Z,26.1914,-97.0507,2.0,358.5422919,31.05005153,-99999.0,'11111222,11111222,99999999' 
TABS,ioos:station:wmo:42044:1,2003-06-02T06:30:00Z,26.1914,-97.0507,2.0,357.3536054,32.48465022,-99999.0,'11111222,11111222,99999999' 
TABS,ioos:station:wmo:42044:1,2003-06-02T07:00:00Z,26.1914,-97.0507,2.0,354.44551,31.81941703,-99999.0,'11111222,11111222,99999999' 
TABS,ioos:station:wmo:42044:1,2003-06-02T07:30:00Z,26.1914,-97.0507,2.0,352.6690085,32.05202334,-99999.0,'11111222,11111222,99999999' 
TABS,ioos:station:wmo:42044:1,2003-06-02T08:00:00Z,26.1914,-97.0507,2.0,349.6872402,31.44806035,-99999.0,'11111222,11111222,99999999' 
TABS,ioos:station:wmo:42044:1,2003-06-02T08:30:00Z,26.1914,-97.0507,2.0,353.1206388,32.14141565,-99999.0,'11111222,11111222,99999999' 
TABS,ioos:station:wmo:42044:1,2003-06-02T09:00:00Z,26.1914,-97.0507,2.0,351.6307901,32.83973965,-99999.0,'11111222,11111222,99999999' 
TABS,ioos:station:wmo:42044:1,2003-06-02T09:30:00Z,26.1914,-97.0507,2.0,348.9035709,33.72044187,-99999.0,'11111222,11111222,99999999' 
TABS,ioos:station:wmo:42044:1,2003-06-02T10:00:00Z,26.1914,-97.0507,2.0,351.2289343,36.39565084,-99999.0,'11111222,11111222,99999999' 
TABS,ioos:station:wmo:42044:1,2003-06-02T10:30:00Z,26.1914,-97.0507,2.0,352.029988,35.9876326,-99999.0,'11111222,11111222,99999999' 
TABS,ioos:station:wmo:42044:1,2003-06-02T11:00:00Z,26.1914,-97.0507,2.0,348.9962522,35.25826144,-99999.0,'11111222,11111222,99999999' 
TABS,ioos:station:wmo:42044:1,2003-06-02T11:30:00Z,26.1914,-97.0507,2.0,351.957335,35.3072967,-99999.0,'11111222,11111222,99999999' 
TABS,ioos:station:wmo:42044:1,2003-06-02T12:00:00Z,26.1914,-97.0507,2.0,350.9877727,36.64237574,-99999.0,'11111222,11111222,99999999' 
TABS,ioos:station:wmo:42044:1,2003-06-02T12:30:00Z,26.1914,-97.0507,2.0,350.5226796,37.10649674,-99999.0,'11111222,11111222,99999999' 
TABS,ioos:station:wmo:42044:1,2003-06-02T13:00:00Z,26.1914,-97.0507,2.0,350.3476233,34.65056565,-99999.0,'11111222,11111222,99999999' 
TABS,ioos:station:wmo:42044:1,2003-06-02T13:30:00Z,26.1914,-97.0507,2.0,354.4134547,39.13589912,-99999.0,'11111222,11111222,99999999' 
TABS,ioos:station:wmo:42044:1,2003-06-02T14:00:00Z,26.1914,-97.0507,2.0,354.0806707,39.56095171,-99999.0,'11111222,11111222,99999999' 
TABS,ioos:station:wmo:42044:1,2003-06-02T14:30:00Z,26.1914,-97.0507,2.0,357.0365173,39.26251393,-99999.0,'11111222,11111222,99999999' 
TABS,ioos:station:wmo:42044:1,2003-06-02T15:00:00Z,26.1914,-97.0507,2.0,357.798205,37.47767469,-99999.0,'11111222,11111222,99999999' 
TABS,ioos:station:wmo:42044:1,2003-06-02T16:00:00Z,26.1914,-97.0507,2.0,0.567187682,39.41192967,-99999.0,'11111222,11111222,99999999' 
TABS,ioos:station:wmo:42044:1,2003-06-02T16:30:00Z,26.1914,-97.0507,2.0,0.38142278,40.58089822,-99999.0,'11111222,11111222,99999999' 
TABS,ioos:station:wmo:42044:1,2003-06-02T17:00:00Z,26.1914,-97.0507,2.0,2.171162723,38.27747379,-99999.0,'11111222,11111222,99999999' 
TABS,ioos:station:wmo:42044:1,2003-06-02T17:30:00Z,26.1914,-97.0507,2.0,0.229048565,40.06031952,-99999.0,'11111222,11111222,99999999' 
TABS,ioos:station:wmo:42044:1,2003-06-02T18:00:00Z,26.1914,-97.0507,2.0,359.2519363,40.58346092,-99999.0,'11111222,11144222,99999999' 
TABS,ioos:station:wmo:42044:1,2003-06-02T18:30:00Z,26.1914,-97.0507,2.0,3.657702056,39.18982138,-99999.0,'11111222,11111222,99999999' 
TABS,ioos:station:wmo:42044:1,2003-06-02T19:00:00Z,26.1914,-97.0507,2.0,4.165523333,38.41145923,-99999.0,'11111222,11111222,99999999' 
TABS,ioos:station:wmo:42044:1,2003-06-02T19:30:00Z,26.1914,-97.0507,2.0,3.972316546,41.72021692,-99999.0,'11111222,11111222,99999999' 
TABS,ioos:station:wmo:42044:1,2003-06-02T20:00:00Z,26.1914,-97.0507,2.0,5.376737397,40.44795421,-99999.0,'11111222,11111222,99999999' 
TABS,ioos:station:wmo:42044:1,2003-06-02T20:30:00Z,26.1914,-97.0507,2.0,5.33289514,42.39348653,-99999.0,'11111222,11111222,99999999' 
TABS,ioos:station:wmo:42044:1,2003-06-02T21:00:00Z,26.1914,-97.0507,2.0,5.289506323,41.00460096,-99999.0,'11111222,11111222,99999999' 
TABS,ioos:station:wmo:42044:1,2003-06-02T21:30:00Z,26.1914,-97.0507,2.0,4.227605476,40.01887805,-99999.0,'11111222,11111222,99999999' 
TABS,ioos:station:wmo:42044:1,2003-06-02T22:00:00Z,26.1914,-97.0507,2.0,7.150056478,42.90361873,-99999.0,'11111222,11111222,99999999' 
TABS,ioos:station:wmo:42044:1,2003-06-02T22:30:00Z,26.1914,-97.0507,2.0,5.111293667,41.08335429,-99999.0,'11111222,11111222,99999999' 
TABS,ioos:station:wmo:42044:1,2003-06-02T23:00:00Z,26.1914,-97.0507,2.0,5.778652595,40.32490546,-99999.0,'11111222,11111222,99999999' 
TABS,ioos:station:wmo:42044:1,2003-06-02T23:30:00Z,26.1914,-97.0507,2.0,8.755282214,39.02471653,-99999.0,'11111222,11111222,99999999' 
TABS,ioos:station:wmo:42044:1,2003-06-03T00:00:00Z,26.1914,-97.0507,2.0,6.219525239,36.64567915,-99999.0,'11111222,11111222,99999999' 
TABS,ioos:station:wmo:42044:1,2003-06-03T00:30:00Z,26.1914,-97.0507,2.0,5.943661911,38.43661405,-99999.0,'11111222,11111222,99999999' 
TABS,ioos:station:wmo:42044:1,2003-06-03T01:00:00Z,26.1914,-97.0507,2.0,7.686547302,37.98125854,-99999.0,'11111222,11111222,99999999' 
TABS,ioos:station:wmo:42044:1,2003-06-03T01:30:00Z,26.1914,-97.0507,2.0,8.978124123,39.2812538,-99999.0,'11111222,11111222,99999999' 
TABS,ioos:station:wmo:42044:1,2003-06-03T02:00:00Z,26.1914,-97.0507,2.0,6.668258333,36.85933396,-99999.0,'11111222,11111222,99999999' 
TABS,ioos:station:wmo:42044:1,2003-06-03T02:30:00Z,26.1914,-97.0507,2.0,3.767262476,37.29056985,-99999.0,'11111222,11111222,99999999' 
TABS,ioos:station:wmo:42044:1,2003-06-03T03:00:00Z,26.1914,-97.0507,2.0,5.337597966,37.73360571,-99999.0,'11111222,11111222,99999999' 
TABS,ioos:station:wmo:42044:1,2003-06-03T03:30:00Z,26.1914,-97.0507,2.0,6.20564658,37.09736514,-99999.0,'11111222,11111222,99999999' 
TABS,ioos:station:wmo:42044:1,2003-06-03T04:00:00Z,26.1914,-97.0507,2.0,3.051565757,35.12980643,-99999.0,'11111222,11111222,99999999' 
TABS,ioos:station:wmo:42044:1,2003-06-03T04:30:00Z,26.1914,-97.0507,2.0,4.046796559,35.56867301,-99999.0,'11111222,11111222,99999999' 
TABS,ioos:station:wmo:42044:1,2003-06-03T05:00:00Z,26.1914,-97.0507,2.0,2.218748397,35.90691438,-99999.0,'11111222,11111222,99999999' 
TABS,ioos:station:wmo:42044:1,2003-06-03T05:30:00Z,26.1914,-97.0507,2.0,359.2995307,35.16262931,-99999.0,'11111222,11144222,99999999' 
TABS,ioos:station:wmo:42044:1,2003-06-03T06:00:00Z,26.1914,-97.0507,2.0,358.1405182,38.21012562,-99999.0,'11111222,11111222,99999999' 
TABS,ioos:station:wmo:42044:1,2003-06-03T06:30:00Z,26.1914,-97.0507,2.0,357.0269008,35.85827241,-99999.0,'11111222,11111222,99999999' 
TABS,ioos:station:wmo:42044:1,2003-06-03T07:00:00Z,26.1914,-97.0507,2.0,354.1306237,40.8742951,-99999.0,'11111222,11111222,99999999' 
TABS,ioos:station:wmo:42044:1,2003-06-03T07:30:00Z,26.1914,-97.0507,2.0,355.6280191,41.45062726,-99999.0,'11111222,11111222,99999999' 
TABS,ioos:station:wmo:42044:1,2003-06-03T08:00:00Z,26.1914,-97.0507,2.0,356.7690936,40.27402389,-99999.0,'11111222,11111222,99999999' 
TABS,ioos:station:wmo:42044:1,2003-06-03T08:30:00Z,26.1914,-97.0507,2.0,355.72156,43.56140608,-99999.0,'11111222,11111222,99999999' 
TABS,ioos:station:wmo:42044:1,2003-06-03T09:00:00Z,26.1914,-97.0507,2.0,357.7680068,43.13273003,-99999.0,'11111222,11111222,99999999' 
TABS,ioos:station:wmo:42044:1,2003-06-03T09:30:00Z,26.1914,-97.0507,2.0,355.5328505,42.2383262,-99999.0,'11111222,11111222,99999999' 
TABS,ioos:station:wmo:42044:1,2003-06-03T10:00:00Z,26.1914,-97.0507,2.0,353.1408818,41.1948589,-99999.0,'11111222,11111222,99999999' 
TABS,ioos:station:wmo:42044:1,2003-06-03T10:30:00Z,26.1914,-97.0507,2.0,355.9872499,41.58194921,-99999.0,'11111222,11111222,99999999' 
TABS,ioos:station:wmo:42044:1,2003-06-03T11:00:00Z,26.1914,-97.0507,2.0,355.2249297,40.84176784,-99999.0,'11111222,11111222,99999999' 
TABS,ioos:station:wmo:42044:1,2003-06-03T11:30:00Z,26.1914,-97.0507,2.0,354.327294,40.87016638,-99999.0,'11111222,11111222,99999999' 
TABS,ioos:station:wmo:42044:1,2003-06-03T12:00:00Z,26.1914,-97.0507,2.0,357.7617326,38.65950077,-99999.0,'11111222,11111222,99999999' 
TABS,ioos:station:wmo:42044:1,2003-06-03T12:30:00Z,26.1914,-97.0507,2.0,356.1584311,38.50652932,-99999.0,'11111222,11111222,99999999' 
TABS,ioos:station:wmo:42044:1,2003-06-03T13:00:00Z,26.1914,-97.0507,2.0,356.5924085,39.87050163,-99999.0,'11111222,11111222,99999999' 
TABS,ioos:station:wmo:42044:1,2003-06-03T13:30:00Z,26.1914,-97.0507,2.0,356.7038053,40.34675699,-99999.0,'11111222,11111222,99999999' 
TABS,ioos:station:wmo:42044:1,2003-06-03T14:00:00Z,26.1914,-97.0507,2.0,356.5115647,41.57704775,-99999.0,'11111222,11111222,99999999' 
TABS,ioos:station:wmo:42044:1,2003-06-03T14:30:00Z,26.1914,-97.0507,2.0,355.2514661,41.5526377,-99999.0,'11111222,11111222,99999999' 
TABS,ioos:station:wmo:42044:1,2003-06-03T15:00:00Z,26.1914,-97.0507,2.0,352.8119366,41.55662282,-99999.0,'11111222,11111222,99999999' 
TABS,ioos:station:wmo:42044:1,2003-06-03T15:30:00Z,26.1914,-97.0507,2.0,353.384468,39.49297912,-99999.0,'11111222,11111222,99999999' 
TABS,ioos:station:wmo:42044:1,2003-06-03T16:00:00Z,26.1914,-97.0507,2.0,355.1148945,39.10205238,-99999.0,'11111222,11111222,99999999' 
TABS,ioos:station:wmo:42044:1,2003-06-03T16:30:00Z,26.1914,-97.0507,2.0,356.1031822,41.34559952,-99999.0,'11111222,11111222,99999999' 
TABS,ioos:station:wmo:42044:1,2003-06-03T17:00:00Z,26.1914,-97.0507,2.0,354.0245318,38.71034616,-99999.0,'11111222,11111222,99999999' 
TABS,ioos:station:wmo:42044:1,2003-06-03T17:30:00Z,26.1914,-97.0507,2.0,355.8794427,40.63505014,-99999.0,'11111222,11111222,99999999' 
TABS,ioos:station:wmo:42044:1,2003-06-03T18:00:00Z,26.1914,-97.0507,2.0,353.856027,39.70809615,-99999.0,'11111222,11111222,99999999' 
TABS,ioos:station:wmo:42044:1,2003-06-03T18:30:00Z,26.1914,-97.0507,2.0,356.156245,42.06463241,-99999.0,'11111222,11111222,99999999' 
TABS,ioos:station:wmo:42044:1,2003-06-03T19:00:00Z,26.1914,-97.0507,2.0,354.1878188,44.23743324,-99999.0,'11111222,11111222,99999999' 
TABS,ioos:station:wmo:42044:1,2003-06-03T19:30:00Z,26.1914,-97.0507,2.0,0.26014594,41.88043099,-99999.0,'11111222,11111222,99999999' 
TABS,ioos:station:wmo:42044:1,2003-06-03T20:00:00Z,26.1914,-97.0507,2.0,357.9006993,44.21968453,-99999.0,'11111222,11111222,99999999' 
TABS,ioos:station:wmo:42044:1,2003-06-03T20:30:00Z,26.1914,-97.0507,2.0,356.044059,41.30843255,-99999.0,'11111222,11111222,99999999' 
TABS,ioos:station:wmo:42044:1,2003-06-03T21:00:00Z,26.1914,-97.0507,2.0,358.3455827,42.59776168,-99999.0,'11111222,11111222,99999999' 
TABS,ioos:station:wmo:42044:1,2003-06-03T21:30:00Z,26.1914,-97.0507,2.0,355.3175968,42.87310229,-99999.0,'11111222,11111222,99999999' 
TABS,ioos:station:wmo:42044:1,2003-06-03T22:00:00Z,26.1914,-97.0507,2.0,358.8220243,41.3387397,-99999.0,'11111222,11111222,99999999' 
TABS,ioos:station:wmo:42044:1,2003-06-03T22:30:00Z,26.1914,-97.0507,2.0,355.7893693,39.76734842,-99999.0,'11111222,11111222,99999999' 
TABS,ioos:station:wmo:42044:1,2003-06-03T23:00:00Z,26.1914,-97.0507,2.0,357.3249236,40.06366558,-99999.0,'11111222,11111222,99999999' 
TABS,ioos:station:wmo:42044:1,2003-06-03T23:30:00Z,26.1914,-97.0507,2.0,358.4900522,38.703443,-99999.0,'11111222,11111222,99999999' 
TABS,ioos:station:wmo:42044:1,2003-06-04T00:00:00Z,26.1914,-97.0507,2.0,354.5886642,38.70249863,-99999.0,'11111222,11111222,99999999' 
TABS,ioos:station:wmo:42044:1,2003-06-04T00:30:00Z,26.1914,-97.0507,2.0,352.5460729,36.92202865,-99999.0,'11111222,11111222,99999999' 
TABS,ioos:station:wmo:42044:1,2003-06-04T01:00:00Z,26.1914,-97.0507,2.0,352.8086764,37.38409421,-99999.0,'11111222,11111222,99999999' 
TABS,ioos:station:wmo:42044:1,2003-06-04T01:30:00Z,26.1914,-97.0507,2.0,347.8498696,39.57657135,-99999.0,'11111222,11111222,99999999' 
TABS,ioos:station:wmo:42044:1,2003-06-04T02:00:00Z,26.1914,-97.0507,2.0,344.2094483,38.18088134,-99999.0,'11111222,11111222,99999999' 
TABS,ioos:station:wmo:42044:1,2003-06-04T02:30:00Z,26.1914,-97.0507,2.0,349.974745,39.80784973,-99999.0,'11111222,11111222,99999999' 
TABS,ioos:station:wmo:42044:1,2003-06-04T03:00:00Z,26.1914,-97.0507,2.0,352.8427322,41.57396902,-99999.0,'11111222,11111222,99999999' 
TABS,ioos:station:wmo:42044:1,2003-06-04T03:30:00Z,26.1914,-97.0507,2.0,349.820607,42.15355975,-99999.0,'11111222,11111222,99999999' 
TABS,ioos:station:wmo:42044:1,2003-06-04T04:00:00Z,26.1914,-97.0507,2.0,351.1328741,39.89685326,-99999.0,'11111222,11111222,99999999' 
TABS,ioos:station:wmo:42044:1,2003-06-04T04:30:00Z,26.1914,-97.0507,2.0,347.7072276,41.37875059,-99999.0,'11111222,11111222,99999999' 
TABS,ioos:station:wmo:42044:1,2003-06-04T05:00:00Z,26.1914,-97.0507,2.0,349.8855613,42.30753361,-99999.0,'11111222,11111222,99999999' 
TABS,ioos:station:wmo:42044:1,2003-06-04T05:30:00Z,26.1914,-97.0507,2.0,349.6769966,41.79658479,-99999.0,'11111222,11111222,99999999' 
TABS,ioos:station:wmo:42044:1,2003-06-04T06:00:00Z,26.1914,-97.0507,2.0,347.5141316,43.66269002,-99999.0,'11111222,11111222,99999999' 
TABS,ioos:station:wmo:42044:1,2003-06-04T06:30:00Z,26.1914,-97.0507,2.0,347.4116323,41.56932162,-99999.0,'11111222,11111222,99999999' 
TABS,ioos:station:wmo:42044:1,2003-06-04T07:00:00Z,26.1914,-97.0507,2.0,351.8131205,41.22010311,-99999.0,'11111222,11111222,99999999' 
TABS,ioos:station:wmo:42044:1,2003-06-04T07:30:00Z,26.1914,-97.0507,2.0,353.5027559,42.24132219,-99999.0,'11111222,11111222,99999999' 
TABS,ioos:station:wmo:42044:1,2003-06-04T08:00:00Z,26.1914,-97.0507,2.0,349.4367243,42.00183448,-99999.0,'11111222,11111222,99999999' 
TABS,ioos:station:wmo:42044:1,2003-06-04T08:30:00Z,26.1914,-97.0507,2.0,350.2192582,40.7929516,-99999.0,'11111222,11111222,99999999' 
TABS,ioos:station:wmo:42044:1,2003-06-04T09:00:00Z,26.1914,-97.0507,2.0,348.1242784,39.50560087,-99999.0,'11111222,11111222,99999999' 
TABS,ioos:station:wmo:42044:1,2003-06-04T09:30:00Z,26.1914,-97.0507,2.0,351.2133766,36.39717709,-99999.0,'11111222,11111222,99999999' 
TABS,ioos:station:wmo:42044:1,2003-06-04T10:00:00Z,26.1914,-97.0507,2.0,348.7109451,38.10732869,-99999.0,'11111222,11111222,99999999' 
TABS,ioos:station:wmo:42044:1,2003-06-04T10:30:00Z,26.1914,-97.0507,2.0,352.1306588,37.32148175,-99999.0,'11111222,11111222,99999999' 
TABS,ioos:station:wmo:42044:1,2003-06-04T11:00:00Z,26.1914,-97.0507,2.0,351.1758275,33.96200377,-99999.0,'11111222,11111222,99999999' 
TABS,ioos:station:wmo:42044:1,2003-06-04T11:30:00Z,26.1914,-97.0507,2.0,351.2389889,34.66447749,-99999.0,'11111222,11111222,99999999' 
TABS,ioos:station:wmo:42044:1,2003-06-04T12:00:00Z,26.1914,-97.0507,2.0,351.2689842,35.04614101,-99999.0,'11111222,11111222,99999999' 
TABS,ioos:station:wmo:42044:1,2003-06-04T12:30:00Z,26.1914,-97.0507,2.0,353.8482829,34.61936597,-99999.0,'11111222,11111222,99999999' 
TABS,ioos:station:wmo:42044:1,2003-06-04T13:00:00Z,26.1914,-97.0507,2.0,356.4899656,32.99189749,-99999.0,'11111222,11111222,99999999' 
TABS,ioos:station:wmo:42044:1,2003-06-04T13:30:00Z,26.1914,-97.0507,2.0,351.7160681,33.66123289,-99999.0,'11111222,11111222,99999999' 
TABS,ioos:station:wmo:42044:1,2003-06-04T14:00:00Z,26.1914,-97.0507,2.0,354.2096938,32.80740313,-99999.0,'11111222,11111222,99999999' 
TABS,ioos:station:wmo:42044:1,2003-06-04T14:30:00Z,26.1914,-97.0507,2.0,349.4588767,30.11830341,-99999.0,'11111222,11111222,99999999' 
TABS,ioos:station:wmo:42044:1,2003-06-04T15:00:00Z,26.1914,-97.0507,2.0,355.4798759,26.01090925,-99999.0,'11111222,11111222,99999999' 
TABS,ioos:station:wmo:42044:1,2003-06-04T15:30:00Z,26.1914,-97.0507,2.0,344.1072347,21.03403195,-99999.0,'11111222,11111222,99999999' 
TABS,ioos:station:wmo:42044:1,2003-06-04T16:00:00Z,26.1914,-97.0507,2.0,353.3518596,25.04844107,-99999.0,'11111222,11111222,99999999' 
TABS,ioos:station:wmo:42044:1,2003-06-04T16:30:00Z,26.1914,-97.0507,2.0,348.1595627,25.82960317,-99999.0,'11111222,11111222,99999999' 
TABS,ioos:station:wmo:42044:1,2003-06-04T17:00:00Z,26.1914,-97.0507,2.0,342.6647741,20.2707696,-99999.0,'11111222,11111222,99999999' 